Weather in Zalizne

Ukraine / Donetsk Region     48°22′18″N   37°53′18″E
temp.,
°C
wind,
m/s
gust,
m/s
humid.,
%
clouds,
%
prec.,
mm/h
press.,
hPa
HPBL,
m
15 april, thu
thu1500:00+9sw258366 0.0 1016158
03:00+7ssw23815 0.0 101697
06:00+7sse2579100 0.0 1016167
09:00+10sse577027 0.0 1016599
12:00+14s685510 0.0 10141123
15:00+15s91156100 0.2 10141624
18:00+13s685814 0.4 10141394
21:00+10ssw59693 0.4 1015547
16 april, fri
fri1600:00+8ssw48743 0.0 1016364
03:00+7s37855 0.0 1016292
06:00+6s36895 0.0 1017240
09:00+9s576616 0.0 1018862
12:00+12ssw574825 0.0 10181600
15:00+13sw574892 0.0 10181796
18:00+12ssw455195 0.0 10181455
21:00+9ssw3665100 0.0 1019332
17 april, sat
sat1700:00+7ssw35745 0.0 1019191
03:00+6sw24815 0.0 1019148
06:00+4w369247 0.0 1020224
09:00+7w456928 0.0 1021746
12:00+8w4663100 0.0 10221109
15:00+9w4559100 0.0 10221236
18:00+9wnw455996 0.0 10221152
21:00+8w356690 0.0 1022398
18 april, sun
sun1800:00+6w247722 0.0 1022120
03:00+6ssw117116 0.0 102111
06:00+5s117180 0.0 102014
09:00+9sw1155100 0.0 1020594
12:00+13w2245100 0.0 10181304
15:00+14w3342100 0.0 10171667
18:00+13w224796 0.0 1017885
21:00+11wnw235580 0.0 1018131
19 april, mon
mon1900:00+9nne22735 0.0 101784
03:00+7n2385100 0.0 101787
06:00+7n238673 0.0 1017110
09:00+10ne3366100 0.0 1017538
12:00+14ne324980 0.0 10161400
15:00+16ne444012 0.0 10151867
18:00+15ene664451 0.0 10151438
21:00+12ene71257100 0.0 1014608